| time (UTC) | temp C | wind direction | speed KPH | gust KPH | rain 1hr cm | rain 24hr cm | rain mn cm | humidity % | barometer mb |
| 20260508085032 | 10 | 202 | 8.0 | 9.7 | 0.00 | 0.00 | 0.00 | 76 | 1014.1 |
| 20260508084021 | 11 | 207 | 9.7 | 12.9 | 0.00 | 0.00 | 0.00 | 76 | 1014.1 |
| 20260508083028 | 11 | 211 | 8.0 | 11.3 | 0.00 | 0.00 | 0.00 | 76 | 1014.1 |
| 20260508082202 | 11 | 227 | 8.0 | 12.9 | 0.00 | 0.00 | 0.00 | 77 | 1014.1 |
| 20260508081028 | 11 | 218 | 8.0 | 9.7 | 0.00 | 0.00 | 0.00 | 76 | 1014.1 |
| 20260508080034 | 11 | 220 | 9.7 | 14.5 | 0.00 | 0.00 | 0.00 | 75 | 1014.1 |
| 20260508075023 | 11 | 219 | 6.4 | 8.0 | 0.00 | 0.00 | 0.00 | 76 | 1014.1 |
| 20260508074111 | 11 | 196 | 6.4 | 8.0 | 0.00 | 0.00 | 0.00 | 76 | 1013.3 |
| 20260508073021 | 11 | 205 | 4.8 | 6.4 | 0.00 | 0.00 | 0.00 | 75 | 1013.1 |
| 20260508072028 | 11 | 198 | 6.4 | 8.0 | 0.00 | 0.00 | 0.00 | 75 | 1013.1 |
| 20260508071030 | 11 | 204 | 8.0 | 9.7 | 0.00 | 0.00 | 0.00 | 74 | 1013.1 |
| 20260508070040 | 12 | 204 | 6.4 | 8.0 | 0.00 | 0.00 | 0.00 | 73 | 1013.1 |
| 20260508065033 | 12 | 201 | 12.9 | 14.5 | 0.00 | 0.00 | 0.00 | 72 | 1013.1 |
| 20260508064022 | 12 | 192 | 12.9 | 16.1 | 0.00 | 0.00 | 0.00 | 72 | 1013.1 |
| 20260508063030 | 12 | 199 | 11.3 | 12.9 | 0.00 | 0.00 | 0.00 | 72 | 1013.1 |
| 20260508062019 | 12 | 214 | 11.3 | 16.1 | 0.00 | 0.00 | 0.00 | 72 | 1013.1 |
| 20260508061027 | 12 | 216 | 9.7 | 12.9 | 0.00 | 0.00 | 0.00 | 72 | 1013.1 |
| 20260508060021 | 12 | 204 | 9.7 | 14.5 | 0.00 | 0.00 | 0.00 | 72 | 1013.1 |
| 20260508055025 | 13 | 194 | 11.3 | 14.5 | 0.00 | 0.00 | 0.00 | 70 | 1013.1 |
| 20260508054032 | 13 | 200 | 12.9 | 17.7 | 0.00 | 0.00 | 0.00 | 69 | 1013.1 |
| 20260508053021 | 13 | 206 | 11.3 | 16.1 | 0.00 | 0.00 | 0.00 | 69 | 1013.1 |
| 20260508052029 | 13 | 214 | 9.7 | 14.5 | 0.00 | 0.00 | 0.00 | 69 | 1013.1 |
| 20260508051033 | 14 | 204 | 12.9 | 14.5 | 0.00 | 0.00 | 0.00 | 68 | 1013.1 |
| 20260508050042 | 14 | 186 | 9.7 | 14.5 | 0.00 | 0.00 | 0.00 | 67 | 1013.1 |
| 20260508045034 | 15 | 196 | 11.3 | 16.1 | 0.00 | 0.00 | 0.00 | 65 | 1013.1 |
| 20260508044023 | 15 | 194 | 12.9 | 17.7 | 0.00 | 0.00 | 0.00 | 64 | 1013.1 |
| 20260508043030 | 15 | 208 | 11.3 | 17.7 | 0.00 | 0.00 | 0.00 | 64 | 1013.1 |
| 20260508042022 | 15 | 228 | 11.3 | 17.7 | 0.00 | 0.00 | 0.00 | 64 | 1013.1 |
| 20260508041028 | 15 | 221 | 12.9 | 16.1 | 0.00 | 0.00 | 0.00 | 64 | 1013.1 |
| 20260508040025 | 16 | 211 | 8.0 | 14.5 | 0.00 | 0.00 | 0.00 | 64 | 1013.1 |
| 20260508035045 | 16 | 223 | 12.9 | 16.1 | 0.00 | 0.00 | 0.00 | 65 | 1013.1 |
| 20260508034033 | 16 | 211 | 9.7 | 12.9 | 0.00 | 0.00 | 0.00 | 65 | 1013.1 |
| 20260508033022 | 17 | 223 | 11.3 | 14.5 | 0.00 | 0.00 | 0.00 | 64 | 1013.1 |
| 20260508032031 | 17 | 222 | 11.3 | 14.5 | 0.00 | 0.00 | 0.00 | 63 | 1012.1 |
| 20260508031019 | 18 | 224 | 11.3 | 16.1 | 0.00 | 0.00 | 0.00 | 62 | 1012.2 |
| 20260508030027 | 18 | 226 | 12.9 | 16.1 | 0.00 | 0.00 | 0.00 | 60 | 1012.2 |
| 20260508025054 | 20 | 220 | 11.3 | 14.5 | 0.00 | 0.00 | 0.00 | 57 | 1012.2 |
| 20260508024024 | 21 | 146 | 3.2 | 3.2 | 0.00 | 0.00 | 0.00 | 44 | 1012.2 |
| 20260508023032 | 21 | 44 | 3.2 | 4.8 | 0.00 | 0.00 | 0.00 | 43 | 1012.2 |
| 20260508022022 | 21 | 70 | 6.4 | 8.0 | 0.00 | 0.00 | 0.00 | 43 | 1012.2 |
| 20260508021030 | 21 | 60 | 6.4 | 9.7 | 0.00 | 0.00 | 0.00 | 43 | 1012.2 |
| 20260508020019 | 21 | 48 | 6.4 | 8.0 | 0.00 | 0.00 | 0.00 | 43 | 1012.2 |
| 20260508015026 | 21 | 43 | 8.0 | 11.3 | 0.00 | 0.00 | 0.00 | 42 | 1013.2 |
| 20260508014118 | 22 | 59 | 6.4 | 9.7 | 0.00 | 0.00 | 0.00 | 41 | 1013.2 |
| 20260508013042 | 22 | 66 | 6.4 | 8.0 | 0.00 | 0.00 | 0.00 | 43 | 1013.2 |
| 20260508012054 | 22 | 48 | 4.8 | 8.0 | 0.00 | 0.00 | 0.00 | 44 | 1013.2 |
| 20260508011021 | 22 | 53 | 6.4 | 9.7 | 0.00 | 0.00 | 0.00 | 44 | 1013.2 |
| 20260508010025 | 22 | 343 | 4.8 | 8.0 | 0.00 | 0.00 | 0.00 | 44 | 1013.2 |
| 20260508005153 | -17 | 338 | 8.0 | 8.0 | 0.00 | 0.00 | 0.00 | ||
| 20260508004045 | -17 | 0.0 | 0.0 | 0.00 | 0.00 | 0.00 | |||
| 20260508002653 | 22 | 9.7 | 11.3 | 0.00 | 0.00 | 0.00 | 43 | 1013.2 | |
| 20260508002214 | -17 | 55 | 6.4 | 8.0 | 0.00 | 0.00 | 0.00 | ||
| 20260507235029 | 22 | 18 | 4.8 | 8.0 | 0.00 | 0.00 | 0.00 | 41 | 1013.2 |
| 20260507234037 | 22 | 341 | 8.0 | 9.7 | 0.00 | 0.00 | 0.00 | 41 | 1014.2 |
| 20260507233026 | 22 | 242 | 6.4 | 8.0 | 0.00 | 0.00 | 0.00 | 42 | 1014.2 |
| 20260507232034 | 22 | 264 | 6.4 | 9.7 | 0.00 | 0.00 | 0.00 | 40 | 1014.2 |
| 20260507231106 | 22 | 274 | 6.4 | 9.7 | 0.00 | 0.00 | 0.00 | 41 | 1014.2 |
| 20260507230027 | 22 | 16 | 6.4 | 8.0 | 0.00 | 0.00 | 0.00 | 43 | 1014.2 |
| 20260507225021 | 22 | 293 | 6.4 | 9.7 | 0.00 | 0.00 | 0.00 | 42 | 1014.2 |
| 20260507224029 | 22 | 336 | 6.4 | 9.7 | 0.00 | 0.00 | 0.00 | 43 | 1014.2 |
| 20260507223037 | 21 | 9.7 | 9.7 | 0.00 | 0.00 | 0.00 | 41 | ||
| 20260507222140 | 22 | 304 | 6.4 | 9.7 | 0.00 | 0.00 | 0.00 | 41 | 1015.2 |
| 20260507221034 | 22 | 248 | 8.0 | 9.7 | 0.00 | 0.00 | 0.00 | 43 | 1015.2 |
| 20260507220025 | 21 | 73 | 3.2 | 6.4 | 0.00 | 0.00 | 0.00 | 46 | 1015.2 |
| 20260507215019 | 21 | 300 | 8.0 | 11.3 | 0.00 | 0.00 | 0.00 | 47 | 1015.2 |
| 20260507214021 | 20 | 37 | 6.4 | 9.7 | 0.00 | 0.00 | 0.00 | 49 | 1015.2 |
| 20260507213028 | 20 | 9 | 8.0 | 9.7 | 0.00 | 0.00 | 0.00 | 50 | 1015.2 |
| 20260507212037 | 20 | 324 | 8.0 | 11.3 | 0.00 | 0.00 | 0.00 | 51 | 1015.2 |
| 20260507211027 | 21 | 269 | 8.0 | 14.5 | 0.00 | 0.00 | 0.00 | 50 | 1015.2 |
| 20260507210030 | 20 | 270 | 4.8 | 8.0 | 0.00 | 0.00 | 0.00 | 52 | 1015.2 |
| 20260507205020 | 21 | 231 | 6.4 | 8.0 | 0.00 | 0.00 | 0.00 | 51 | 1016.2 |
| 20260507204032 | 20 | 159 | 4.8 | 9.7 | 0.00 | 0.00 | 0.00 | 54 | 1016.2 |
| 20260507203021 | 20 | 258 | 4.8 | 6.4 | 0.00 | 0.00 | 0.00 | 53 | 1016.2 |
| 20260507202049 | 19 | 290 | 4.8 | 6.4 | 0.00 | 0.00 | 0.00 | 55 | 1016.1 |
| 20260507201037 | 19 | 24 | 4.8 | 11.3 | 0.00 | 0.00 | 0.00 | 57 | 1016.1 |
| 20260507200026 | 20 | 284 | 6.4 | 8.0 | 0.00 | 0.00 | 0.00 | 56 | 1016.2 |
| 20260507195021 | 20 | 300 | 6.4 | 9.7 | 0.00 | 0.00 | 0.00 | 57 | 1016.2 |
| 20260507194024 | 19 | 1 | 6.4 | 9.7 | 0.00 | 0.00 | 0.00 | 59 | 1016.2 |
| 20260507193031 | 18 | 296 | 6.4 | 9.7 | 0.00 | 0.00 | 0.00 | 60 | 1016.2 |
| 20260507192021 | 18 | 44 | 8.0 | 11.3 | 0.00 | 0.00 | 0.00 | 60 | 1016.1 |
| 20260507191049 | 19 | 198 | 6.4 | 12.9 | 0.00 | 0.00 | 0.00 | 58 | 1016.9 |
| 20260507190037 | 17 | 259 | 3.2 | 6.4 | 0.00 | 0.00 | 0.00 | 61 | 1017.1 |
| 20260507185022 | 17 | 37 | 4.8 | 9.7 | 0.00 | 0.00 | 0.00 | 63 | 1017.1 |
| 20260507184054 | 17 | 17 | 4.8 | 9.7 | 0.00 | 0.00 | 0.00 | 64 | 1017.1 |
| 20260507183024 | 17 | 6 | 8.0 | 12.9 | 0.00 | 0.00 | 0.00 | 64 | 1017.1 |
| 20260507182033 | 17 | 331 | 6.4 | 11.3 | 0.00 | 0.00 | 0.00 | 65 | 1017.1 |
| 20260507181020 | 17 | 257 | 8.0 | 12.9 | 0.00 | 0.00 | 0.00 | 65 | 1017.1 |
| 20260507180028 | 17 | 51 | 6.4 | 9.7 | 0.00 | 0.00 | 0.00 | 65 | 1017.1 |
| 20260507175023 | 16 | 23 | 6.4 | 9.7 | 0.00 | 0.00 | 0.00 | 66 | 1017.1 |
| 20260507174026 | 16 | 54 | 8.0 | 12.9 | 0.00 | 0.00 | 0.00 | 65 | 1017.1 |
| 20260507173034 | 16 | 325 | 6.4 | 9.7 | 0.00 | 0.00 | 0.00 | 65 | 1017.1 |
| 20260507172025 | 16 | 335 | 6.4 | 9.7 | 0.00 | 0.00 | 0.00 | 67 | 1017.1 |
| 20260507171033 | 15 | 325 | 6.4 | 9.7 | 0.00 | 0.00 | 0.00 | 69 | 1017.1 |
| 20260507170020 | 15 | 22 | 6.4 | 9.7 | 0.00 | 0.00 | 0.00 | 68 | 1017.1 |
| 20260507165024 | 16 | 14 | 6.4 | 9.7 | 0.00 | 0.00 | 0.00 | 67 | 1017.1 |
| 20260507164036 | 15 | 326 | 6.4 | 9.7 | 0.00 | 0.00 | 0.00 | 68 | 1017.1 |
| 20260507163027 | 16 | 328 | 4.8 | 8.0 | 0.00 | 0.00 | 0.00 | 67 | 1017.1 |
| 20260507162033 | 16 | 273 | 6.4 | 9.7 | 0.00 | 0.00 | 0.00 | 67 | 1017.1 |
| 20260507161025 | 16 | 359 | 6.4 | 9.7 | 0.00 | 0.00 | 0.00 | 68 | 1017.1 |
| 20260507160035 | 15 | 349 | 6.4 | 8.0 | 0.00 | 0.00 | 0.00 | 71 | 1017.1 |
| 20260507155020 | 14 | 16 | 6.4 | 9.7 | 0.00 | 0.00 | 0.00 | 73 | 1017.1 |
| 20260507154033 | 13 | 1 | 6.4 | 12.9 | 0.00 | 0.00 | 0.00 | 74 | 1017.1 |
| 20260507153036 | 13 | 325 | 6.4 | 9.7 | 0.00 | 0.00 | 0.00 | 75 | 1017.1 |
| 20260507152044 | 13 | 339 | 6.4 | 9.7 | 0.00 | 0.00 | 0.00 | 76 | 1017.1 |
| 20260507151046 | 13 | 349 | 4.8 | 8.0 | 0.00 | 0.00 | 0.00 | 77 | 1017.1 |
| 20260507150023 | 12 | 13 | 6.4 | 9.7 | 0.00 | 0.00 | 0.00 | 78 | 1017.1 |
| 20260507145026 | 12 | 351 | 4.8 | 8.0 | 0.00 | 0.00 | 0.00 | 79 | 1017.1 |
| 20260507144021 | 12 | 307 | 6.4 | 9.7 | 0.00 | 0.00 | 0.00 | 80 | 1017.1 |
| 20260507143028 | 12 | 332 | 3.2 | 6.4 | 0.00 | 0.00 | 0.00 | 82 | 1017.1 |
| 20260507142036 | 12 | 326 | 4.8 | 8.0 | 0.00 | 0.00 | 0.00 | 82 | 1017.1 |
| 20260507141026 | 12 | 266 | 3.2 | 4.8 | 0.00 | 0.00 | 0.00 | 83 | 1017.1 |
| 20260507140037 | 12 | 251 | 1.6 | 4.8 | 0.00 | 0.00 | 0.00 | 84 | 1017.1 |
| 20260507135023 | 12 | 270 | 1.6 | 3.2 | 0.00 | 0.00 | 0.00 | 84 | 1017.1 |
| 20260507134132 | 11 | 311 | 1.6 | 4.8 | 0.00 | 0.00 | 0.00 | 84 | 1017.1 |
| 20260507133020 | 11 | 340 | 3.2 | 4.8 | 0.00 | 0.00 | 0.00 | 84 | 1017.1 |
| 20260507132029 | 11 | 282 | 3.2 | 4.8 | 0.00 | 0.00 | 0.00 | 84 | 1017.1 |
| 20260507131037 | 11 | 299 | 3.2 | 4.8 | 0.00 | 0.00 | 0.00 | 84 | 1017.1 |
| 20260507130026 | 11 | 291 | 3.2 | 4.8 | 0.00 | 0.00 | 0.00 | 84 | 1017.1 |
| 20260507125028 | 12 | 261 | 1.6 | 3.2 | 0.00 | 0.00 | 0.00 | 82 | 1017.1 |
| 20260507124043 | 12 | 331 | 3.2 | 6.4 | 0.00 | 0.00 | 0.00 | 82 | 1017.1 |
| 20260507123032 | 12 | 337 | 4.8 | 6.4 | 0.00 | 0.00 | 0.00 | 82 | 1017.1 |
| 20260507122040 | 12 | 22 | 3.2 | 6.4 | 0.00 | 0.00 | 0.00 | 83 | 1017.1 |
| 20260507121029 | 12 | 352 | 3.2 | 4.8 | 0.00 | 0.00 | 0.00 | 83 | 1017.2 |
| 20260507120042 | 12 | 3 | 3.2 | 4.8 | 0.00 | 0.00 | 0.00 | 82 | 1017.2 |
| 20260507115029 | 12 | 319 | 3.2 | 6.4 | 0.00 | 0.00 | 0.00 | 82 | 1017.2 |
| 20260507114019 | 12 | 353 | 4.8 | 4.8 | 0.00 | 0.00 | 0.00 | 82 | 1017.2 |
| 20260507113044 | 12 | 9 | 3.2 | 6.4 | 0.00 | 0.00 | 0.00 | 81 | 1017.2 |
| 20260507112053 | 12 | 342 | 4.8 | 6.4 | 0.00 | 0.00 | 0.00 | 81 | 1017.2 |
| 20260507111021 | 12 | 329 | 6.4 | 8.0 | 0.00 | 0.00 | 0.00 | 81 | 1017.2 |
| 20260507110028 | 12 | 339 | 4.8 | 6.4 | 0.00 | 0.00 | 0.00 | 82 | 1017.2 |
| 20260507105050 | 12 | 334 | 4.8 | 8.0 | 0.00 | 0.00 | 0.00 | 86 | 1017.2 |
| 20260507104020 | 12 | 249 | 3.2 | 8.0 | 0.00 | 0.00 | 0.00 | 88 | 1017.2 |
| 20260507103056 | 12 | 235 | 4.8 | 6.4 | 0.00 | 0.00 | 0.00 | 88 | 1017.2 |
| 20260507102026 | 12 | 227 | 4.8 | 6.4 | 0.00 | 0.00 | 0.00 | 88 | 1017.2 |
| 20260507101034 | 12 | 228 | 4.8 | 6.4 | 0.00 | 0.00 | 0.00 | 88 | 1017.2 |
| 20260507100021 | 12 | 236 | 6.4 | 8.0 | 0.00 | 0.00 | 0.00 | 88 | 1017.2 |
| 20260507095031 | 12 | 230 | 4.8 | 6.4 | 0.00 | 0.00 | 0.00 | 87 | 1017.2 |
| 20260507094041 | 12 | 244 | 4.8 | 6.4 | 0.00 | 0.00 | 0.00 | 87 | 1018.0 |
| 20260507093026 | 12 | 236 | 6.4 | 8.0 | 0.00 | 0.00 | 0.00 | 87 | 1018.2 |
| 20260507092054 | 12 | 232 | 4.8 | 8.0 | 0.00 | 0.00 | 0.00 | 87 | 1018.2 |
| 20260507091026 | 12 | 247 | 4.8 | 9.7 | 0.00 | 0.00 | 0.00 | 87 | 1018.2 |
| 20260507090034 | 12 | 234 | 8.0 | 8.0 | 0.00 | 0.00 | 0.00 | 87 | 1018.2 |